Showing default

ETV-A1, 51060

Orbit data source: Space-Track

ETV-A1, 51060 is a payload satellite owned by Sen (UK) in SSO that was launched on Thu, 13 Jan 2022 UTC via an FALCON 9 launch vehicle from the Air Force Eastern Test Range (AFETR). Payload-class satellites include a variety of spacecraft equipped with specific instruments for various scientific and technological missions. These include communications satellites like Starlink; space stations such as the ISS; scientific satellites like the Hubble; Earth observation satellites from companies like Planet Labs, Umbra, and HawkEye 360; GPS; miniature CubeSats for education and research; and military/defense satellites.

Loading next visibility...
Identifier
51060, 2022-002CE
Orbit
SSO
Country
Flag of UKUK
Related business
Manufacturer
NanoAvionics
Mission
Operational Commercial Imaging
Bus & Motor
CUBESAT 16U, Unknown motor
Mass
~20 kg wet, ~20 kg dry
Launch date (UTC)
2022-01-13 (4 years ago)
Launch vehicle
FALCON 9
Launch site
Air Force Eastern Test Range (AFETR)
Object type
Payload
Rocket body
Debris
Shape & HBR
Box + 2 Pan, 0.2 m
Radar Cross Section
0.100 m², Medium (>0.1 m² and < 1m²)

Expand to show TLE details & history
Last TLE update: 8 hours ago

TLE from 8 hours ago
0 ETV-A1
1 51060U 22002CE  26072.93053748  .00014455  00000-0  38137-3 0  9998
2 51060  97.2986 139.6097 0004455 345.7479  14.3641 15.38570880231186
Epoch: 2026-03-13T22:19Z
TLE epoch observation values (Epoch: 2026-03-13T22:19:58.438Z)
Latitude
0.00008°
Longitude
-6.94281°
Altitude
450.505 km
Speed
7.644 km/s
True Right ascension
09h 18m 26s
True Declination
0° 00' 00"
Sunlit
Object was in full shadow at epoch
Visualization orbit readout
Latitude
Unknown
Longitude
Unknown
Altitude
Unknown
Speed
Unknown
Apparent Right ascension
Unknown
Apparent Declination
Unknown
Sunlit
N/A
Visualization observer readout
Local Sidereal Time
10:49:42
Azimuth
Unknown
Elevation
Unknown
Doppler factor
Unknown
Orbital elements
Apogee altitude
450.312 km
Perigee altitude
444.23 km
Semi-major axis
6,825.408 km
Eccentricity
0.00045
Inclination
97.2986°
RAAN
139.6097°
Arg. of periapsis
345.7479°
True anomaly
14.37677°
Mean anomaly
14.3641°
Eccentric anomaly
14.37044°
Mean motion
3.84902 °/min
Orbital period
93.53 mins
BSTAR
0.00038137
Loading maneuver chart data...
Computing Atmospheric mass density...
Loading historical data...
Loading historical data...
Loading historical data...
Loading historical data...
Loading historical data...
Loading historical data...
Loading historical data...

Documentation

Showing up to 5 results
|